Flag for U.S.A. Weather past 2 weeks in Charlottesville, Virginia, U.S.A.

Now
22 °F

Sunny.


Feels Like: 22 °F
Forecast: 13 / 33 °F
Wind: No wind

Location: Charlottesville-Albemarle Airport

Current Time: Mar 6, 2015 at 11:33:18 AM

Latest Report: Mar 6, 2015 at 10:53 AM


Visibility: 10 mi

Pressure: 30.56 "Hg

Humidity: 52%

Dew point: 7 °F

Location of CharlottesvilleLocation

Historic Weather in Charlottesville — Graph

°F

Charlottesville temperature yesterday

Maximum temperature yesterday: 45 °F (at 12:53 AM)
Minimum temperature yesterday: 21 °F (at 11:53 PM)
Average temperature yesterday: 32 °F

Past Weeks' High & Low Weather Summary

 TemperatureHumidityPressure
High50 °F (Mar 2, 8:53 AM)100% (Feb 22, 7:53 AM)30.85 "Hg (Feb 22, 7:53 AM)
Low0 °F (Feb 20, 6:53 AM)20% (Mar 2, 2:53 PM)29.81 "Hg (Feb 25, 2:53 AM)
Average28 °F64%30.23 "Hg
* Reported Feb 19 9:53 AM — Mar 6 9:53 AM, Charlottesville, Weather by CustomWeather, © 2015

Note: Actual official high and low records may vary slightly from our data, if they occured in-between our weather recording intervals... More about our weather records

Advertising

Charlottesville weather history for previous 24 hours

 ConditionsComfort  
Time TempWeatherWind HumidityBarometerVisibility
9:53 AM
Fri, Mar 6
20 °FSunny.3 mph55%30.58 "Hg10 mi
8:53 AM15 °FSunny.5 mph64%30.58 "Hg10 mi
7:53 AM13 °FSunny.5 mph64%30.57 "Hg10 mi
6:53 AM11 °FSunny.3 mph73%30.55 "Hg10 mi
5:53 AM11 °FClear.3 mph77%30.53 "Hg10 mi
4:53 AM13 °FClear.3 mph74%30.51 "Hg10 mi
3:53 AM14 °FClear.6 mph73%30.48 "Hg10 mi
2:53 AM15 °FClear.7 mph67%30.46 "Hg10 mi
1:53 AM18 °FClear.3 mph68%30.46 "Hg10 mi
12:53 AM20 °FClear.5 mph68%30.44 "Hg10 mi
11:53 PM
Thu, Mar 5
21 °FClear.7 mph68%30.42 "Hg10 mi
10:53 PM23 °FClear.8 mph68%30.42 "Hg10 mi
9:53 PM25 °FOvercast.7 mph72%30.40 "Hg10 mi
8:53 PM25 °FOvercast.No wind85%30.35 "Hg10 mi
7:53 PM26 °FOvercast.5 mph84%30.33 "Hg10 mi
6:53 PM26 °FLight snow. Mostly cloudy.3 mph81%30.29 "Hg8 mi
5:53 PM26 °FOvercast.5 mph84%30.27 "Hg10 mi
4:53 PM27 °FIce fog.8 mph85%30.23 "Hg4 mi
4:04 PM27 °FLight snow. Ice fog.10 mph89%30.19 "Hg3 mi
3:53 PM27 °FLight snow. Ice fog.9 mph89%30.20 "Hg1 mi
2:53 PM27 °FSnow. Ice fog.10 mph92%30.16 "Hg0 mi
1:53 PM29 °FHeavy snow. Ice fog.8 mph93%30.16 "Hg0 mi
12:53 PM30 °FSnow. Ice fog.9 mph92%30.16 "Hg1 mi
12:00 PM31 °FLight snow. Ice fog.10 mph92%30.12 "Hg1 mi
Weather by CustomWeather, © 2015

See weather overviewHow to use our weather pages